SCP
0 0 0 0 1 1 1 1 1 1 1 1 0 0 0 0 0 0 0 0 0 0 0 0 0 0 0 0 0 0 0 0 0 0 0 0 0 0 0 0 0 0 0
0 0 0 0 1 1 1 1 1 1 1 1 1 0 0 0 0 0 0 0 0 0 0 0 0 0 0 0 0 0 0 0 0 0 0 0 0 0 0 0 0 0 0
0 0 0 0 0 1 1 1 2 2 2 1 1 1 0 0 0 0 0 0 0 0 0 0 0 0 0 0 0 0 0 0 0 0 0 0 0 0 0 0 0 0 0
0 0 0 0 0 1 1 1 2 2 2 2 1 1 1 0 0 0 0 0 0 0 0 0 0 0 0 0 0 0 0 0 0 0 0 0 0 0 0 0 0 0 0
0 0 0 0 0 1 1 1 2 2 2 2 2 1 1 1 0 0 0 0 0 0 0 0 0 0 0 0 0 0 0 0 0 0 0 0 0 0 0 0 0 0 0
0 0 0 0 0 1 1 1 1 2 2 2 2 2 1 1 1 0 0 0 0 0 0 0 0 0 0 0 0 0 0 0 0 0 0 0 0 0 0 0 0 0 0
0 0 0 0 0 1 1 1 1 1 2 2 2 2 2 1 1 1 0 0 0 0 0 0 0 0 0 0 0 0 0 0 0 0 0 0 0 0 0 0 0 0 0
0 0 0 0 0 1 1 1 1 1 1 2 2 3 2 2 1 1 1 1 0 0 0 0 0 0 0 0 0 0 0 0 0 0 0 0 0 0 0 0 0 0 0
0 0 0 0 1 1 1 1 1 1 1 2 3 3 3 3 2 1 1 1 1 0 0 0 0 0 0 0 0 0 0 0 0 0 0 0 0 0 0 0 0 0 0
0 0 0 0 1 1 1 1 1 0 1 1 3 4 3 3 2 2 1 1 1 1 1 1 1 0 0 0 0 0 0 0 0 0 0 0 0 0 0 0 0 0 0
0 0 0 0 0 0 0 0 0 0 0 1 1 2 2 2 2 1 1 1 1 1 1 1 1 1 1 1 0 0 0 0 0 0 0 0 0 0 0 0 0 0 0
0 0 0 0 0 0 0 0 0 0 0 0 0 0 1 1 1 1 1 1 1 1 1 1 1 1 1 1 1 1 1 0 0 0 0 0 0 0 0 0 0 0 0
0 0 0 0 0 0 0 0 0 0 0 0 0 0 0 0 0 0 0 1 1 1 1 1 1 1 1 1 1 1 1 1 0 0 0 0 0 0 0 0 0 0 0
0 0 0 0 0 0 0 0 0 0 0 0 0 0 0 0 0 0 0 0 0 0 1 1 1 1 1 1 1 1 1 1 1 0 0 0 0 0 0 0 0 0 0
0 0 0 0 0 0 0 0 0 0 0 0 0 0 0 0 0 0 0 0 0 0 0 0 1 1 1 0 1 1 1 1 1 1 0 0 0 0 0 0 0 0 0
0 0 0 0 0 0 0 0 0 0 0 0 0 0 0 0 0 0 0 0 0 0 0 0 0 0 0 0 0 0 0 1 1 1 0 0 0 0 0 0 0 0 0
0 0 0 0 0 0 0 0 0 0 0 0 0 0 0 0 0 0 0 0 0 0 0 0 0 0 0 0 0 0 0 1 1 1 0 0 0 0 0 0 0 0 0
0 0 0 0 0 0 0 0 0 0 0 0 0 0 0 0 0 0 0 0 0 0 0 0 0 0 0 0 0 0 0 0 1 1 1 0 0 0 0 0 0 0 0
0 0 0 0 0 0 0 0 0 0 0 0 0 0 0 0 0 0 0 0 0 0 0 0 0 0 0 0 0 0 0 0 0 0 0 0 0 0 0 0 0 0 0
0 0 0 0 0 0 0 0 0 0 0 0 0 0 0 0 0 0 0 0 0 0 0 0 0 0 0 0 0 0 0 0 0 0 0 0 0 0 0 0 0 0 0
0 0 0 0 0 0 0 0 0 0 0 0 0 0 0 0 0 0 0 0 0 0 0 0 0 0 0 0 0 0 0 0 0 0 0 0 0 0 0 0 0 0 0
0 0 0 0 0 0 0 0 0 0 0 0 0 0 0 0 0 0 0 0 0 0 0 0 0 0 0 0 0 0 0 0 0 0 0 0 0 0 0 0 0 0 0
0 0 0 0 0 0 0 0 0 0 0 0 0 0 0 0 0 0 0 0 0 0 0 0 0 0 0 0 0 0 0 0 0 0 0 0 0 0 0 0 0 0 0
0 0 0 0 0 0 0 0 0 0 0 0 0 0 0 0 0 0 0 0 0 0 0 0 0 0 0 0 0 0 0 0 0 0 0 0 0 0 0 0 0 0 0
0 0 0 0 0 0 0 0 0 0 0 0 0 0 0 0 0 0 0 0 0 0 0 0 0 0 0 0 0 0 0 0 0 0 0 0 0 0 0 0 0 0 0
0 0 0 0 0 0 0 0 0 0 0 0 0 0 0 0 0 0 0 0 0 0 0 0 0 0 0 0 0 0 0 0 0 0 0 0 0 0 0 0 0 0 0
Wind_Speed
10 7 8 9 8 8 10 11 11 10 8 7 7 7 8 7 6 6 7 8 8 8 8 6 6 6 6 7 7 5 6 5 3 3 4 5 7 9 8 7 6 7 7
8 7 7 7 9 10 10 10 11 10 10 8 8 6 5 5 5 4 6 8 8 8 7 8 7 7 7 7 7 6 4 4 4 3 2 4 4 4 5 5 6 6 5
11 8 7 8 8 9 10 9 11 11 11 9 5 3 3 2 4 5 6 7 8 8 8 8 7 7 7 7 8 8 8 6 5 5 4 3 4 4 3 3 4 4 4
9 8 7 7 8 8 8 8 8 9 9 9 7 8 8 8 8 6 5 5 7 7 8 8 8 7 6 7 7 7 7 7 6 5 6 5 3 3 4 3 3 3 4
8 7 7 7 6 6 6 6 6 7 7 8 10 10 8 7 5 4 4 5 5 6 7 8 8 8 7 7 7 7 7 7 7 5 4 5 5 6 5 6 4 3 3
7 6 4 4 4 3 4 4 5 5 5 7 8 9 9 8 5 6 6 5 5 5 7 7 8 8 7 8 8 7 8 7 7 6 5 4 4 5 6 8 6 5 4
5 4 4 4 3 3 3 4 5 4 4 5 6 7 8 8 8 7 7 6 5 5 7 7 8 7 8 7 7 7 7 8 8 8 7 6 6 4 4 6 6 5 4
3 3 3 4 4 4 4 4 5 5 4 5 5 6 6 5 5 6 5 5 4 5 5 6 7 7 6 6 6 6 7 6 7 8 8 6 6 5 5 5 5 6 5
2 2 2 1 2 3 3 4 4 3 3 3 4 4 4 5 4 4 4 3 3 3 3 4 5 5 6 6 6 6 6 6 7 7 7 7 5 5 5 5 5 6 7
2 1 1 1 1 2 2 2 3 3 2 2 2 2 3 3 4 3 3 3 3 3 3 3 4 5 5 5 5 5 5 6 6 5 6 6 5 4 4 4 4 5 7
2 2 2 1 1 0 1 2 2 2 1 1 1 1 1 2 2 3 3 3 3 3 4 4 4 4 4 4 4 4 3 4 4 4 4 5 4 4 4 4 4 4 5
3 2 1 1 1 0 1 0 1 1 1 1 1 1 0 0 1 2 2 2 3 3 3 3 4 4 4 4 4 4 4 4 4 4 4 4 3 4 3 3 4 4 5
3 3 2 1 1 1 0 0 0 1 1 1 1 1 0 0 0 1 1 1 2 2 2 3 3 3 3 3 4 4 4 4 4 4 4 4 3 3 3 3 3 3 3
3 3 2 2 2 2 1 1 1 1 0 1 1 1 1 1 1 1 0 0 1 1 2 2 2 3 2 2 3 3 3 3 3 3 3 3 3 3 3 3 3 3 3
3 3 3 3 2 2 2 1 2 1 1 1 1 1 1 1 0 0 0 0 0 0 0 0 0 1 1 1 2 2 3 3 2 1 1 1 0 1 1 1 2 3 3
4 4 4 3 3 3 3 2 2 1 1 1 2 1 1 0 0 0 1 1 1 1 2 1 1 1 1 0 1 2 2 2 2 1 0 0 0 1 2 2 2 2 3
5 5 5 5 4 4 3 3 3 1 1 1 1 1 1 1 1 0 1 1 1 1 1 1 1 1 1 1 2 1 1 1 1 1 0 1 1 1 1 2 2 2 3
5 5 4 4 3 2 2 2 2 1 2 1 1 1 1 2 1 1 1 1 1 1 1 1 1 1 1 2 2 2 1 0 0 1 1 0 1 1 2 2 2 2 2
4 4 3 3 3 2 2 2 2 1 2 2 2 2 2 2 2 2 2 1 1 1 1 1 1 1 1 2 2 2 1 1 1 1 0 0 0 2 3 1 2 2 2
3 3 2 2 2 3 2 2 2 2 3 3 3 2 2 2 2 2 1 1 1 2 2 1 1 1 0 1 2 2 1 1 0 0 0 0 1 1 2 0 1 2 3
3 2 2 2 3 2 1 2 2 3 2 2 1 1 1 2 2 1 1 1 2 2 2 1 1 1 0 0 2 1 0 1 1 0 1 1 1 2 2 1 1 2 3
3 2 2 2 2 1 2 3 3 2 1 1 1 1 1 1 1 1 1 1 2 2 1 1 0 1 1 1 1 1 0 0 0 1 1 1 1 2 2 2 3 4 3
3 2 2 3 3 2 1 3 2 1 1 0 0 0 0 0 0 1 2 2 2 1 1 1 1 0 1 0 1 1 0 1 0 1 1 1 2 2 2 3 3 2 1
3 2 2 3 3 3 2 2 1 0 1 1 1 0 0 0 0 0 1 2 2 2 2 2 1 1 1 1 0 0 0 1 1 1 1 2 2 2 2 2 2 2 1
3 3 3 4 4 3 2 2 1 1 1 1 1 1 1 1 0 0 0 1 1 2 3 2 2 2 2 2 1 0 0 1 1 0 1 1 1 1 1 1 1 1 1
3 3 4 4 4 3 3 2 1 2 2 2 2 1 1 1 1 0 1 1 1 1 1 1 1 1 1 1 1 1 1 1 2 1 0 1 1 1 2 2 2 2 1
Wind_Direction
238 230 217 208 202 199 197 196 195 197 188 188 194 199 209 209 208 208 207 206 207 206 207 212 209 206 213 216 213 214 221 227 211 240 273 269 255 252 251 249 251 253 251
248 236 221 208 202 202 201 200 199 195 193 197 198 200 200 204 207 206 208 209 208 208 208 211 213 211 215 218 216 212 217 220 193 199 243 291 301 274 253 247 246 251 253
233 233 223 213 206 206 204 201 200 196 196 196 184 178 179 191 202 211 216 216 211 210 212 214 214 214 215 222 221 215 217 226 215 203 201 228 254 299 289 258 248 245 245
235 228 219 215 207 208 204 202 199 196 195 188 185 187 196 208 214 211 214 214 211 213 215 217 216 217 219 223 224 220 220 220 228 220 219 225 211 247 293 293 273 255 249
234 232 223 214 210 203 197 197 193 195 196 191 193 195 205 214 212 199 203 211 213 216 218 218 219 220 222 225 225 222 220 221 227 223 217 228 235 233 251 275 285 285 259
236 236 232 208 209 202 191 186 181 191 192 190 195 198 205 208 203 203 208 213 215 218 221 220 220 221 223 225 227 226 221 223 225 226 220 214 224 229 234 253 265 271 268
226 222 216 208 203 194 186 178 174 187 192 188 194 200 205 206 209 212 212 213 217 219 221 219 223 224 225 224 223 224 227 225 225 227 229 227 232 230 230 247 263 267 269
234 233 224 210 205 198 188 181 180 189 192 192 199 203 202 204 211 213 211 216 223 224 221 217 219 221 223 224 223 224 228 229 229 232 232 234 236 233 231 237 251 269 268
259 246 244 207 189 186 188 180 179 189 197 198 195 199 202 202 205 207 207 215 224 226 217 211 212 217 219 221 221 225 228 227 231 234 234 237 240 237 239 238 235 248 268
314 324 316 288 229 192 179 157 160 172 183 188 197 192 201 203 203 196 200 208 216 214 209 214 213 213 216 218 219 225 228 227 232 233 234 237 241 241 240 239 241 240 252
302 304 296 293 254 100 152 157 155 158 153 167 182 188 204 205 205 205 210 210 212 212 210 211 214 212 213 213 215 221 219 223 232 236 237 244 243 243 242 240 242 245 247
306 308 295 309 328 60 38 148 159 157 175 190 184 174 191 204 207 225 229 215 211 213 212 207 208 213 210 209 212 217 215 218 227 236 238 245 250 252 251 246 247 248 247
322 329 318 284 269 261 279 320 277 219 197 164 163 156 159 163 249 275 269 235 219 215 210 205 207 211 210 208 214 215 214 218 225 229 232 240 237 250 259 260 260 261 263
286 301 299 288 287 283 269 245 271 264 210 139 147 204 228 211 210 212 244 267 223 214 217 216 206 208 204 202 205 207 209 215 221 225 229 232 226 241 256 259 267 273 271
282 283 281 286 291 295 295 263 255 261 225 172 176 239 263 256 219 136 109 80 43 22 5 153 171 206 204 210 197 200 200 203 210 211 230 259 290 292 275 279 283 279 272
257 263 270 275 272 267 267 267 258 251 213 203 219 226 225 247 302 82 89 88 72 63 66 65 69 45 357 71 142 174 190 190 192 196 230 331 347 340 337 324 307 281 271
253 251 252 252 257 259 256 253 254 234 200 212 230 232 211 206 219 171 120 131 126 98 94 85 97 74 26 65 91 123 178 180 197 200 203 354 7 338 314 316 314 307 302
269 269 268 273 277 280 280 278 269 221 202 214 234 232 223 227 211 181 178 181 153 145 132 101 92 75 37 54 59 76 129 159 120 113 135 188 337 356 343 322 313 309 323
271 273 273 280 287 280 278 275 262 233 213 226 235 234 222 217 205 203 205 189 156 142 124 109 100 101 53 64 69 79 99 103 86 66 66 141 121 7 11 348 311 313 326
294 300 310 309 284 280 278 247 241 232 240 250 253 249 229 215 215 220 213 180 155 148 127 100 95 98 45 65 78 91 135 144 126 50 28 18 27 9 17 325 296 302 316
291 297 289 281 274 283 262 245 242 246 269 289 284 273 254 233 218 210 177 148 136 131 126 114 66 31 0 77 71 70 148 196 182 245 304 315 5 358 6 359 303 310 324
286 274 272 285 287 276 247 249 256 277 305 284 267 279 287 252 191 163 158 145 145 147 151 140 110 7 358 31 39 36 31 38 198 255 275 291 347 353 355 359 354 347 342
277 274 268 280 291 286 251 247 274 316 319 288 252 267 277 266 199 177 165 150 150 159 176 181 204 285 339 5 29 7 40 47 315 280 283 316 351 2 4 8 358 346 328
258 256 252 261 277 289 285 267 280 286 219 211 210 172 138 39 22 177 172 173 181 184 189 196 212 235 278 306 340 3 64 80 38 342 2 10 22 22 14 4 347 329 310
257 241 238 247 255 264 270 280 271 191 208 211 200 181 171 182 184 16 255 213 224 206 206 208 200 196 229 250 260 269 253 198 185 98 11 359 350 346 332 330 318 318 321
253 247 248 251 257 256 259 265 255 210 190 204 207 198 192 188 177 135 24 107 150 153 185 185 187 247 245 240 240 254 242 178 136 98 189 254 276 281 291 298 305 308 312